Tracking 31027 objects as of 19-Jul-2025
HD Live streaming from Space Station
objects crossing your sky now

SL-12 R/B(2)

Track SL-12 R/B(2) now!


NORAD ID: 25743
Int'l Code: 1999-027D
Perigee: 7,078.7 km
Apogee: 35,674.0 km
Inclination: 17.2 °
Period: 766.6 minutes
Semi major axis: 27747 km
RCS: 23.7189 m2 (large)
Launch date: May 20, 1999
Source: Commonwealth of Independent States (former USSR) (CIS)
Launch site: TYURATAM MISSILE AND SPACE COMPLEX (TTMTR)

Note: This is a ROCKET BODY
Your satellite tracking list
STARLINK-31879
Track 1 satellite(s)




NASA's NSSDC Master Catalog

Two Line Element Set (TLE):
1 25743U 99027D   25199.28883046 -.00000029  00000-0  00000-0 0  9995
2 25743  17.1714 274.2335 5152797 112.2732 345.9564  1.87832515179603
Source of the keplerian elements: AFSPC